Preview of NWS' New Version of Forecast
This preview is not operational and should not be used for support decisions.
Latest weather observations around

Emigrant Gap, Blue Canyon Nyack Airport (KBLU)

Using English Units (Switch to International System of Units)
Date/ Time (PDT) Wind (mph) Vis. (mi) Weather Sky Cond. Temp (°F) Rel. Humidity Wind Chill (°F) Heat Index (°F) Pressure Precip. (in)
Air Dwpt 6 hour Altimeter (inHg) Sea level (inHg) 1 hr 3 hr 6 hr
Max Min
Jul 21 21:52 ENE 3 10 Clear CLR 66 52     61%     30.19 29.91      
Jul 21 20:52 Calm 10 Clear CLR 66 52     61%     30.18 29.91      
Jul 21 19:52 W 3 10 Clear CLR 69 51     53%     30.18 29.91      
Jul 21 18:52 WSW 5 10 Clear CLR 72 52     49%   71 30.16 29.89      
Jul 21 17:52 6 10 Clear CLR 73 52     48%   72 30.16 29.88      
Jul 21 16:52 6 10 Clear CLR 73 53     50%   72 30.17 29.89      
Jul 21 15:52 Calm 10 Clear CLR 74 53     48%   73 30.18 29.9      
Jul 21 14:52 WSW 9 10 Clear CLR 75 55     50%   75 30.19 29.9      
Jul 21 13:52 SW 7 10 Clear CLR 74 55     52%   73 30.18 29.9      
Jul 21 12:52 WSW 8 10 Clear CLR 73 55     53%   73 30.18 29.9      
Jul 21 11:52 7 10 Clear CLR 73 54     51%   72 30.18 29.88      
Jul 21 10:52 7 10 Clear CLR 73 50     44%   72 30.17 29.89      
Jul 21 09:52 S 6 10 Clear CLR 71 51     49%   70 30.16 29.89      
Jul 21 08:52 Calm 10 Clear CLR 70 50     49%     30.16 29.9      
Notice The following observation data may not be complete
Jul 21 07:52 Calm 10 Clear CLR   51      %     30.14 29.87      
Jul 21 06:52 Calm 10 Clear CLR 63 52     67%     30.14 29.87      
Notice The following observation data may not be complete
Jul 21 05:52 Calm 10 Clear CLR   51      %     30.12 29.85      
Notice The following observation data may not be complete
Jul 21 04:52 Calm 10 Clear CLR   51      %     30.11 29.83      
Jul 21 03:52 Calm 10 Clear CLR 63 51     65%     30.12 29.84      
Jul 21 02:52 Calm 10 Clear CLR 64 51     63%     30.12 29.85      
Jul 21 01:52 Calm 10 Clear CLR 63 51     65%     30.13 29.85      
Jul 21 00:52 Calm 10 Clear CLR 64 52     65%     30.13 29.85      
Jul 20 23:52 Calm 10 Clear CLR 66 52     61%     30.12 29.84      
Jul 20 22:52 NE 3 10 Clear CLR 64 51     63%     30.11 29.85      
Jul 20 21:52 NE 3 10 Clear CLR 64 52     65%     30.12 29.85      
Jul 20 20:52 W 5 10 Clear CLR 64 51     63%     30.11 29.85      
Jul 20 19:52 WSW 3 10 Clear CLR 68 52     57%     30.11 29.84      
Jul 20 18:52 WSW 6 10 Clear CLR 70 51     51%     30.11 29.84      
Jul 20 17:52 W 6 10 Clear CLR 71 51     49%   70 30.11 29.84      
Jul 20 16:52 WNW 8 10 Clear CLR 73 52     48%   72 30.12 29.84      
Jul 20 15:52 W 7 10 Clear CLR 73 51     46%   72 30.12 29.85      
Jul 20 14:52 SSW 7 10 Clear CLR 72 50     46%   71 30.13 29.86      
Jul 20 13:52 W 8 10 Clear CLR 72 50     46%   71 30.13 29.86      
Jul 20 12:52 W 9 10 Clear CLR 71 50     47%   70 30.13 29.87      
Jul 20 11:52 5 10 Clear CLR 72 51     48%   71 30.14 29.87      
Jul 20 10:52 SSW 6 10 Clear CLR 70 44     39%     30.13 29.88      
Jul 20 09:52 Calm 10 Clear   70 44     39%     30.13 29.87      
Jul 20 08:52 Calm 10 Clear CLR 69 45     42%     30.13 29.87      
Notice The following observation data may not be complete
Jul 20 07:52 Calm 10 Clear CLR   45      %     30.12 29.85      
Notice The following observation data may not be complete
Jul 20 06:52 Calm 10 Clear CLR   44      %     30.11 29.84      
Notice The following observation data may not be complete
Jul 20 05:52 Calm 10 Clear CLR   43      %     30.1 29.83      
Notice The following observation data may not be complete
Jul 20 04:52 Calm 10 Clear CLR   44      %     30.09 29.82      
Notice The following observation data may not be complete
Jul 20 03:52 Calm 10 Clear CLR   46      %     30.1 29.82      
Notice The following observation data may not be complete
Jul 20 02:52 Calm 10 Clear CLR   50      %     30.1 29.83      
Notice The following observation data may not be complete
Jul 20 01:52 Calm 10 Clear CLR   50      %     30.1 29.83      
Notice The following observation data may not be complete
Jul 20 00:52 ENE 3 10 Clear CLR   51      %     30.11 29.83      
Notice The following observation data may not be complete
Jul 19 23:52 Calm 10 Clear CLR   51      %     30.11 29.84      
Jul 19 22:52 ENE 3 10 Clear CLR 62 51     67%     30.11 29.85      
Jul 19 21:52 Calm 10 Clear CLR 62 49     62%     30.11 29.86      
Jul 19 20:52 Calm 10 Clear CLR 62 51     67%     30.1 29.85      
Jul 19 19:52 WSW 5 10 Clear CLR 67 51     57%     30.1 29.84      
Jul 19 18:52 5 10 Clear CLR 70 51     51%     30.09 29.83      
Jul 19 17:52 W 8 10 Clear CLR 71 51     49%   70 30.1 29.83      
Jul 19 16:52 6 10 Clear CLR 72 52     49%   71 30.11 29.84      
Jul 19 15:52 7 10 Clear CLR 72 52     49%   71 30.11 29.84      
Jul 19 14:52 3 10 Clear CLR 73 53     50%   72 30.11 29.84      
Jul 19 13:52 5 10 Clear CLR 72 49     44%   71 30.11 29.84      
Jul 19 12:52 6 10 Clear CLR 73 51     46%   72 30.12 29.84      
Jul 19 11:52 5 10 Clear CLR 71 50     47%   70 30.12 29.86      
Jul 19 10:52 6 10 Clear CLR 70 48     46%     30.11 29.85      
Jul 19 09:52 SSW 9 10 Clear CLR 68 47     47%     30.11 29.85      
Jul 19 08:52 S 8 10 Clear CLR 68 49     50%     30.11 29.84      
Jul 19 07:52 SE 3 10 Clear CLR 65 49     56%     30.1 29.84      
Notice The following observation data may not be complete
Jul 19 06:52 Calm 10 Clear CLR   47      %     30.09 29.83      
Notice The following observation data may not be complete
Jul 19 05:52 Calm 10 Clear CLR   48      %     30.09 29.81      
Notice The following observation data may not be complete
Jul 19 04:52 Calm 10 Clear CLR   48      %     30.08 29.81      
Jul 19 03:52 ESE 3 10 Clear CLR 62 48     60%     30.08 29.8      
Notice The following observation data may not be complete
Jul 19 02:52 Calm 10 Clear CLR   49      %     30.08 29.81      
Notice The following observation data may not be complete
Jul 19 01:52 Calm 10 Clear CLR   50      %     30.09 29.82      
Notice The following observation data may not be complete
Jul 19 00:52 ENE 3 10 Clear CLR   51      %     30.1 29.83      
Jul 18 23:52 ENE 3 10 Clear CLR 61 49     64%     30.1 29.85      
Notice The following observation data may not be complete
Jul 18 22:52 Calm 10 Clear CLR   47      %     30.11 29.84      
Jul 18 21:52 S 3 10 Clear CLR 63 47     56%     30.11 29.86      
Jul 18 20:52 W 3 10 Clear CLR 65 52     63%     30.11 29.86      
Jul 18 19:52 W 5 10 Clear CLR 67 52     59%     30.11 29.85      
Jul 18 18:52 SW 7 10 Clear CLR 71 49     45%   70 30.1 29.83      
Jul 18 17:52 SW 9 10 Clear CLR 73 47     39%   72   29.83      
Jul 18 16:52 6 10 Clear CLR 74 44     34%   73 30.12 29.83      
Jul 18 15:52 S 8 10 Clear CLR 74 43     33%   73 30.13 29.84      
Jul 18 14:52 S 8 10 Clear CLR 74 40     29%   72   29.85      
Jul 18 13:52 SSW 8 10 Clear CLR 73 41     31%   72 30.15 29.86      
Jul 18 12:52 7 10 Clear CLR 73 43     34%   72 30.15 29.88      
Jul 18 11:52 S 11 10 Clear CLR 71 43     36%   70 30.16 29.89      
Jul 18 10:52 S 11 10 Clear CLR 70 44     39%     30.16 29.9      
Jul 18 09:52 S 13 10 Clear CLR 68 49     50%     30.16 29.91      
Jul 18 08:52 S 8 10 Clear CLR 67 51     57%     30.15 29.91      
Jul 18 07:52 S 7 10 Clear CLR 65 51     61%     30.15 29.88      
Notice The following observation data may not be complete
Jul 18 06:52 SSE 6 10 Clear CLR   50      %     30.13 29.87      
Jul 18 05:52 3 10 Clear CLR 62 49     62%     30.13 29.86      
Notice The following observation data may not be complete
Jul 18 04:52 SE 3 10 Clear CLR   48      %     30.13 29.85      
Jul 18 03:52 ESE 5 10 Clear CLR 63 46     54%     30.13 29.85      
Notice The following observation data may not be complete
Jul 18 02:52 Calm 10 Clear CLR   49      %     30.14 29.85      
Notice The following observation data may not be complete
Jul 18 01:52 Calm 10 Clear CLR   50      %     30.14 29.86      
Jul 18 00:52 Calm 10 Clear CLR 63 50     63%     30.14 29.87      
Jul 17 23:52 Calm 10 Clear CLR 62 51     67%     30.15 29.88      
Jul 17 22:52 Calm 10 Clear CLR 62 51     67%     30.15 29.9      
Jul 17 21:52 E 3 10 Clear CLR 62 51     67%     30.16 29.91      
Jul 17 20:52 S 3 10 Clear CLR 63 51     65%     30.15 29.91      
Jul 17 19:52 3 10 Clear CLR 68 51     55%     30.15 29.88      
Jul 17 18:52 3 10 Mostly Clear FEW002 71 50     47%   70 30.15 29.88      
Jul 17 18:43 WSW 5 4 Haze FEW002 71 50     47%   70 30.15        
Jul 17 18:36 3 1.25 Haze FEW002 71 49     45%   70 30.15        
Jul 17 18:33 3 1.75 Haze CLR 71 50     47%   70 30.15        
Jul 17 17:52 7 10 Clear CLR 72 50     46%   71 30.15 29.89      
Jul 17 16:52   10 Clear CLR 72 50     46%   71 30.16 29.9      
Jul 17 15:52   10 Clear CLR 73 51     46%   72 30.16 29.88      
Jul 17 14:52 6 10 Clear CLR 74 50     43%   73 30.15 29.88      
Jul 17 13:52 SSW 8 10 Clear CLR 74 51     45%   73 30.15 29.87      
Jul 17 12:52 7 10 Clear CLR 72 52     49%   71 30.15 29.88      
Jul 17 11:52 5 10 Clear CLR 72 49     44%   71 30.14 29.88      
Jul 17 10:52 S 8 10 Clear CLR 69 47     45%     30.14 29.89      
Jul 17 09:52 S 6 10 Clear CLR 68 47     47%     30.13 29.89      
Jul 17 08:52 S 7 10 Clear CLR 67 49     52%     30.12 29.88      
Jul 17 07:52 Calm 10 Clear CLR 65 51     61%     30.11 29.85      
Notice The following observation data may not be complete
Jul 17 06:52 Calm 10 Clear CLR   50      %     30.1 29.84      
Jul 17 05:52 Calm 10 Clear CLR 61 48     62%     30.09 29.83      
Jul 17 04:52 Calm 10 Clear CLR 60 49     67%     30.08 29.82      
Jul 17 03:52 Calm 10 Clear CLR 62 49     62%     30.08 29.81      
Jul 17 02:52 Calm 10 Clear CLR 62 48     60%     30.08 29.81      
Notice The following observation data may not be complete
Jul 17 01:52 Calm 10 Clear CLR   49      %     30.09 29.82      
Jul 17 00:52 Calm 10 Clear CLR 62 49     62%     30.09 29.82      
Jul 16 23:52 NE 7 10 Clear CLR 62 51     67%     30.09 29.83      
Notice The following observation data may not be complete
Jul 16 22:52 NNE 3 10 Clear     51      %     30.09 29.84      
Jul 16 21:52 Calm 10 Clear CLR 60 51     72%     30.1 29.86      
Jul 16 20:52 W 3 10 Clear CLR 63 52     67%     30.1 29.85      
Jul 16 19:52 SSW 5 10 Clear CLR 66 50     56%     30.09 29.83      
Jul 16 18:52 S 7 10 Clear CLR 69 49     49%     30.09 29.84      
Jul 16 15:52 S 10 10 Clear CLR 72 47     41%   71 30.1 29.83      
Jul 16 14:52 SSW 8 10 Clear CLR 72 46     40%   71 30.11 29.83      
Jul 16 13:52 5 10 Clear CLR 71 47     42%   70 30.11 29.84      
Jul 16 12:52 7 10 Clear CLR 71 46     41%   70 30.12 29.85      
Jul 16 11:52 S 9 10 Clear CLR 70 41     35%     30.12 29.85      
Jul 16 10:52 SSE 7 10 Clear CLR 67 48     51%     30.12 29.87      
Jul 16 09:52 S 6 10 Clear CLR 67 46     47%     30.11 29.87      
Jul 16 08:52 5 10 Clear CLR 66 48     52%     30.11 29.85      
Jul 16 07:52 SSE 3 10 Clear CLR 65 47     52%     30.11 29.84      
Notice The following observation data may not be complete
Jul 16 06:52 Calm 10 Clear CLR   44      %     30.1 29.83      
Notice The following observation data may not be complete
Jul 16 05:52 ESE 3 10 Clear CLR   42      %     30.1 29.83      
Notice The following observation data may not be complete
Jul 16 04:52 Calm 10 Clear CLR   41      %     30.1 29.82      
Notice The following observation data may not be complete
Jul 16 03:52 Calm 10 Clear CLR   42      %     30.11 29.83      
Jul 16 02:52 Calm 10 Clear CLR 63 45     52%     30.12 29.83      
Jul 16 01:52 ENE 5 10 Clear CLR 63 46     54%     30.13 29.85      
Jul 16 00:52 NE 5 10 Clear CLR 62 46     56%     30.14 29.87      
Jul 15 23:52 Calm 10 Clear CLR 63 45     52%     30.16 29.89      
Jul 15 22:52 Calm 10 Clear CLR 63 44     50%     30.17 29.9      
Jul 15 21:52 Calm 10 Clear   62 45     53%     30.18 29.92      
Jul 15 20:52 SW 3 10 Clear CLR 66 47     50%     30.18 29.91      
Jul 15 19:52 SW 5 10 Clear CLR 69 46     44%     30.18 29.9      
Jul 15 18:52 7 10 Clear CLR 71 45     39%   70 30.19 29.91      
Jul 15 17:52 SSW 6 10 Clear CLR 73 42     33%   72 30.19 29.91      
Jul 15 16:52 SW 8 10 Clear CLR 74 44     34%   73   29.91      
Jul 15 15:52 SW 9 10 Clear CLR 74 45     36%   73 30.22 29.93      
Jul 15 14:52 SSW 8 10 Clear CLR 75 40     28%   74 30.22 29.93      
Jul 15 13:52 SSW 10 10 Clear CLR 74 40     29%   72 30.24 29.95      
Jul 15 12:52 S 10 10 Clear CLR 74 41     31%   72   29.96      
Jul 15 11:52 S 9 10 Clear CLR 73 36     26%   71 30.24 29.96      
Jul 15 10:52 7 10 Clear CLR 72 31     22%   70 30.24 29.97      
Jul 15 09:52 5 10 Clear CLR 71 29     21%   69 30.24 29.97      
Jul 15 08:52 3 10 Clear CLR 69 28     21%     30.23 29.97      
Jul 15 07:52 Calm 10 Clear CLR 68 24     19%     30.23 29.95      
Notice The following observation data may not be complete
Jul 15 06:52 Calm 10 Clear CLR   22      %     30.23 29.95      
Jul 15 05:52 ESE 3 10 Clear CLR 65 18     16%     30.23 29.94      
Jul 15 04:52 Calm 10 Clear CLR 65 19     17%     30.22 29.93      
Notice The following observation data may not be complete
Jul 15 03:52 ESE 3 10 Clear CLR   22      %     30.23 29.94      
Notice The following observation data may not be complete
Jul 15 02:52 Calm 10 Clear CLR   25      %     30.24 29.94      
Jul 15 01:52 SE 3 10 Clear CLR 66 25     21%     30.25 29.95      
Jul 15 00:52 ESE 3 10 Clear CLR 65 28     25%     30.25 29.96      
Jul 14 23:52 ESE 3 10 Clear CLR 64 34     33%     30.26 29.98      
Jul 14 22:52 ESE 5 10 Clear CLR 63 37     38%     30.26 29.99      
Jul 14 21:52 Calm 10 Clear CLR 63 37     38%     30.26 30      
Jul 14 20:52 Calm 10 Clear CLR 65 37     36%     30.25 29.99      
Jul 14 19:52 WSW 3 10 Clear CLR 70 40     33%     30.25 29.96      
Jul 14 18:52 S 8 10 Clear CLR 72 36     27%   70   29.96      
Jul 14 17:52 S 9 10 Clear CLR 74 36     25%   72   29.94      
Jul 14 16:52 SSW 10 10 Clear CLR 75 38     26%   73 30.25 29.95      
Jul 14 15:52 SW 11 10 Clear CLR 75 38     26%   73 30.25 29.96      
Jul 14 14:52 SSW 14 10 Clear CLR 76 40     27%   74 30.26 29.96      
Jul 14 13:52 SSW 11 10 Clear CLR 75 38     26%   73 30.26 29.96      
Jul 14 12:52 S 14 10 Clear CLR 75 38     26%   73 30.26 29.96      
Jul 14 11:52 S 10 10 Clear CLR 74 39     28%   72 30.25 29.95      
Jul 14 10:52 S 14 10 Clear CLR 73 39     29%   71   29.94      
Jul 14 09:52 S 9 10 Clear CLR 71 39     31%   69   29.95      
Jul 14 08:52 S 9 10 Clear CLR 69 42     38%     30.22 29.93      
Jul 14 07:52 SSE 6 10 Clear CLR 68 38     33%     30.21 29.91      
Notice The following observation data may not be complete
Jul 14 06:52 SE 3 10 Clear CLR   35      %     30.19 29.89      
Notice The following observation data may not be complete
Jul 14 05:52 SE 3 10 Clear CLR   33      %     30.19 29.88      
Jul 14 04:52 ESE 3 10 Clear CLR 66 36     33%     30.18 29.87      
Notice The following observation data may not be complete
Jul 14 03:52 ESE 3 10 Clear CLR   41      %     30.17 29.87      
Notice The following observation data may not be complete
Jul 14 02:52 ESE 3 10 Clear CLR   43      %     30.17 29.86      
Jul 14 01:52 ESE 5 10 Clear CLR 66 44     45%     30.18 29.87      
Notice The following observation data may not be complete
Jul 14 00:52 ESE 3 10 Clear CLR   45      %     30.18 29.88      
Jul 13 23:52 Calm 10 Clear CLR 67 43     42%     30.18 29.88      
Jul 13 22:52 Calm 10 Clear CLR 68 43     40%     30.18 29.88      
Jul 13 21:52 Calm 10 Clear CLR 66 44     45%     30.17 29.88      
Jul 13 20:52 SW 5 10 Clear CLR 70 42     36%     30.16 29.85      
Jul 13 19:52 SSW 5 10 Clear CLR 73 44     35%   72 30.15 29.85      
Jul 13 18:52 3 10 Clear CLR 75 44     33%   74 30.15 29.86      
Jul 13 17:52 SW 6 10 Clear CLR 76 44     32%   75   29.85      
Jul 13 16:52 WSW 7 10 Clear CLR 77 42     29%   76 30.16 29.85      
Jul 13 15:52 7 10 Clear CLR 77 41     28%   76   29.86      
Jul 13 14:52 SSW 8 10 Clear CLR 77 44     31%   76   29.88      
Jul 13 13:52 S 13 10 Clear CLR 77 40     26%   76   29.86      
Jul 13 12:52 SW 8 10 Clear CLR 76 43     31%   75   29.88      
Jul 13 11:52 SSW 10 10 Clear CLR 75 44     33%   74   29.88      
Jul 13 10:52 7 10 Clear CLR 73 46     38%   72   29.88      
Jul 13 09:52 S 7 10 Clear CLR 73 48     41%   72   29.88      
Jul 13 08:52 3 10 Clear CLR 71 48     44%   70 30.16 29.87      
Jul 13 07:52 SE 5 10 Clear CLR 68 50     53%     30.15 29.86      
Jul 13 06:52 ESE 3 10 Clear CLR 65 49     56%     30.13 29.84      
Notice The following observation data may not be complete
Jul 13 05:52 ESE 3 10 Clear CLR   46      %     30.13 29.84      
Notice The following observation data may not be complete
Jul 13 04:52 ESE 3 10 Clear CLR   46      %     30.12 29.82      
Jul 13 03:52 ESE 3 10 Clear CLR 66 47     50%     30.11 29.8      
Jul 13 02:52 Calm 10 Clear CLR 65 49     56%     30.12 29.81      
Notice The following observation data may not be complete
Jul 13 01:52 Calm 10 Clear CLR   50      %     30.13 29.81      
Jul 13 00:52 ENE 3 10 Clear CLR 67 51     57%     30.13 29.82      
Jul 12 23:52 Calm 10 Clear CLR 66 51     59%     30.14 29.84      
Jul 12 22:52 E 3 10 Clear   66 51     59%     30.15 29.86      
Jul 12 21:52 Calm 10 Clear CLR 65 51     61%     30.15 29.87      
Jul 12 20:52 Calm 10 Clear CLR 67 51     57%     30.15 29.85      
Jul 12 19:52 SW 3 10 Clear CLR 72 51     48%   71 30.14 29.83      
Jul 12 18:52   10 Clear CLR 74 51     45%   73 30.14 29.84      
Jul 12 17:52 W 8 10 Clear CLR 75 50     41%   74   29.83      
Jul 12 16:52 7 10 Clear CLR 76 50     40%   75   29.85      
Jul 12 15:52 W 10 10 Clear CLR 77 50     39%   76 30.16 29.86      
Jul 12 14:52 WNW 8 10 Clear CLR 79 50     36%   78   29.85      
Jul 12 13:52 W 9 10 Clear CLR 77 51     40%   76   29.88      
Jul 12 12:52 SW 8 10 Clear CLR 76 52     43%   75   29.89      
Jul 12 11:52 SSW 5 10 Clear CLR 76 48     37%   75   29.9      
Jul 12 10:52 S 7 10 Clear CLR 74 44     34%   73   29.9      
Jul 12 09:52 S 5 10 Clear CLR 73 45     37%   72 30.19 29.91      
Jul 12 08:52 S 3 10 Clear CLR 72 42     34%   70 30.19 29.91      
Jul 12 07:52 Calm 10 Clear CLR 71 43     36%   70 30.18 29.88      
Jul 12 06:52 Calm 10 Clear CLR 68 43     40%     30.18 29.88      
Notice The following observation data may not be complete
Jul 12 05:52 Calm 10 Clear CLR   41      %     30.18 29.88      
Notice The following observation data may not be complete
Jul 12 04:52 E 3 10 Clear CLR   43      %     30.18 29.89      
Jul 12 03:52 Calm 10 Clear CLR 65 45     48%     30.18 29.88      
Notice The following observation data may not be complete
Jul 12 02:52 Calm 10 Clear CLR   46      %     30.19 29.89      
Jul 12 01:52 ENE 3 10 Clear CLR 65 45     48%     30.2 29.91      
Jul 12 00:52 NE 3 10 Clear CLR 65 49     56%     30.21 29.92      
Jul 11 23:52 ENE 3 10 Clear CLR 64 51     63%     30.22 29.93      
Jul 11 22:52 NE 3 10 Clear CLR 65 52     63%     30.23 29.95      
Jul 11 21:52 Calm 10 Clear CLR 65 52     63%     30.23 29.96      
Jul 11 20:52 Calm 10 Clear CLR 65 52     63%     30.23 29.97      
Jul 11 19:52 WSW 5 10 Clear CLR 70 51     51%     30.23 29.95      
Jul 11 18:52 5 10 Clear CLR 73 49     43%   72 30.24 29.96      
Jul 11 17:52 5 10 Clear CLR 75 50     41%   74 30.24 29.96      
Jul 11 16:52 6 10 Clear CLR 75 50     41%   74 30.25 29.97      
Jul 11 15:52 WNW 8 10 Clear CLR 76 51     42%   75 30.26 29.98      
Jul 11 14:52 6 10 Clear CLR 76 50     40%   75 30.27 29.98      
Jul 11 13:52 6 10 Clear CLR 75 46     36%   74 30.28 30      
Jul 11 12:52 SW 8 10 Clear CLR 74 48     40%   73 30.28 30      
Jul 11 10:52 SSW 8 10 Clear CLR 72 39     30%   70 30.27 30.01      
Jul 11 08:52 S 5 10 Clear CLR 69 43     39%     30.27 30.01      
Jul 11 07:52 Calm 10 Clear CLR 67 43     42%     30.27 30      
Jul 11 06:52 Calm 10 Clear CLR 64 43     46%     30.26 30      
Jul 11 05:52 Calm 10 Clear CLR 63 43     48%     30.26 29.99      
Jul 11 04:52 ESE 3 10 Clear CLR 63 44     50%     30.25 29.99      
Jul 11 03:52 E 3 10 Clear CLR 62 44     52%     30.26 29.99      
Jul 11 02:52 Calm 10 Clear CLR 64 43     46%     30.26 29.99      
Jul 11 01:52 Calm 10 Clear CLR 63 42     46%     30.27 30      
Jul 11 00:52 Calm 10 Clear CLR 64 43     46%     30.28 30.01      
Jul 10 23:52 E 3 10 Clear CLR 61 47     60%     30.28 30.03      
Jul 10 22:52 Calm 10 Clear CLR 61 48     62%     30.28 30.04      
Jul 10 21:52 Calm 10 Clear CLR 62 48     60%     30.29 30.05      
Jul 10 20:52 WSW 3 10 Clear CLR 65 47     52%     30.28 30.03      
Jul 10 18:52 5 10 Clear CLR 70 46     42%     30.28 30.03      
Jul 10 17:52 S 3 10 Clear CLR 70 46     42%     30.28 30.04      
Jul 10 15:52 SSW 7 10 Clear CLR 72 44     37%   71 30.3 30.04      
Jul 10 13:52 6 10 Clear CLR 72 46     40%   71   30.04      
Jul 10 12:52 SSW 7 10 Clear CLR 71 43     36%   70 30.3 30.05      
Jul 10 11:52 7 10 Clear CLR 69 40     35%     30.29 30.05      
Jul 10 10:52 S 10 10 Clear CLR 67 42     40%     30.28 30.05      
Jul 10 09:52 S 7 10 Clear   66 43     43%     30.28 30.06      
Jul 10 08:52 SSE 5 10 Clear CLR 65 42     43%     30.27 30.06      
Jul 10 07:52 3 10 Clear CLR 62 43     50%     30.26 30.04      
Jul 10 06:52 ESE 3 10 Clear CLR 60 42     51%     30.25 30.02      
Notice The following observation data may not be complete
Jul 10 05:52 Calm 10 Clear CLR   40      %     30.24 30.02      
Jul 10 04:52 ESE 3 10 Clear CLR 59 40     49%     30.23 30      
Jul 10 03:52 SSE 3 10 Clear CLR 59 40     49%     30.23 29.99      
Notice The following observation data may not be complete
Jul 10 02:52 SSE 5 10 Clear CLR   40      %     30.23 29.98      
Jul 10 01:52 SE 3 10 Clear CLR 59 40     49%     30.23 29.99      
Jul 10 00:52 ESE 3 10 Clear CLR 59 41     51%     30.23 30      
Jul 09 23:52 SE 3 10 Clear CLR 60 42     51%     30.24 30      
Jul 09 22:52 Calm 10 Clear CLR 60 43     53%     30.23 30.01      
Jul 09 21:52 Calm 10 Clear CLR 57 45     64%     30.23 30.02      
Jul 09 20:52 Calm 10 Clear CLR 58 46     65%     30.23 30.02      
Jul 09 19:52 SW 3 10 Clear CLR 62 44     52%     30.22 30      
Jul 09 18:52 SSW 5 10 Clear   65 43     45%     30.22 30      
Jul 09 17:52 SSW 7 10 Clear CLR 67 38     34%     30.21 30      
Jul 09 16:52 S 7 10 Clear CLR 69 38     32%     30.22 30      
Jul 09 15:52 S 9 10 Clear CLR 69 38     32%     30.22 29.99      
Jul 09 14:52 S 10 10 Clear CLR 70 39     32%     30.22 29.98      
Jul 09 13:52 S 10 10 Clear CLR 69 35     29%     30.22 29.99      
Jul 09 12:52 5 10 Clear CLR 69 35     29%     30.21 29.98      
May 14 21:52 Calm 10 Clear CLR 51 47     86%     30.05 29.89      
May 14 10:52 7 10 Mostly Clear FEW055 60 34     37%     30.06 29.89      
May 13 09:52 Calm 10 Clear   54 39     57%     30.06 29.92      
May 12 18:52 5 10 Cloudy OVC090 53 38     56%     29.98 29.86      
May 11 21:52 7 10 Clear CLR 47 25     42% 44   29.92 29.79      
May 11 17:52 NNE 10 10 Clear CLR 56 20     24%     29.91 29.75      
May 11 15:52 NNE 10 10 Clear CLR 57 17     21%     29.91 29.75      
Jun 12 01:33 SSE 3 1.25 Light Snow and Fog/Mist BKN003 OVC007 33 33     100% 30   29.96   0    
Jun 12 01:18 SSW 3 2.5 Light Snow and Fog/Mist OVC004 33 33     100% 30   29.96   0    
Jun 11 17:08 6 5 Fog/Mist SCT004 BKN013 OVC034 36 35     96% 31   29.93   0    
Jun 11 15:52 W 7 2.5 Light Snow and Fog/Mist FEW010 BKN018 OVC049 36 34     92% 30   29.94 29.91 0    
Jun 11 13:02   10 Mostly Cloudy FEW022 SCT029 BKN050 42 32     67%     29.9        
Jun 11 12:52 SSW 10 10 Clear   42 31     64% 36   29.9 29.84      
Jun 11 09:59 5 10 Cloudy FEW019 BKN028 OVC035 40 33     76% 37            
Jun 11 09:42 S 9 10 Mostly Cloudy FEW020 BKN028 BKN034 39 33     79% 33   29.87        
Jun 11 04:52 5 2.5 Fog/Mist OVC002 38 38     100% 34     29.78      
Jun 11 02:52 S 6 0.75 Fog/Mist VV002 39 39     100% 35     29.79      
Jun 11 00:43 S 7 1.25 Fog/Mist OVC002 40 40     100% 35   29.91        
Jun 10 22:52 S 9 10 Cloudy OVC005 42 41     96% 37   29.93 29.83      
Jun 10 03:00 SSE 11 3 Fog/Mist BKN002 OVC009 44 44     100% 38   29.95        
Jun 10 02:14 SSE 10 1.25 Fog/Mist OVC002 44 44     100% 39   29.97        
Jun 09 21:27 S 9 1.75 Fog/Mist BKN002 BKN006 OVC016 47 46     97% 43   29.99        
Jun 09 18:52 SSW 11 10 Cloudy SCT007 BKN010 OVC017 49 47     93% 44     29.87      
Jun 09 13:52 SW 10 0.25 Clear   48 48     100% 43   30.01 29.91 0    
Jun 09 10:52 SSW 9 0.25 Fog VV002 47 47     100% 43   30 29.91     0
Jun 09 06:35 S 9 0.25 Fog VV002 46 46     100% 41   30.01        
Jun 09 05:52 S 7 0.25 Fog VV001 46 46     100% 42   30.01 29.91      
Jun 09 03:52 S 6 0.25 Fog VV002 46 46     100% 43   30.03 29.94      
Jun 09 02:52 S 7 0.5 Fog VV002 46 46     100% 42   30.04 29.95      
Notice The following observation data may not be complete
Jun 09 02:08   1.5 Fog/Mist OVC002          %              
Jun 09 01:48 SSW 5 0.75 Fog/Mist VV002 46 46     100% 44   30.05        
Jun 08 18:52 S 7 0.25 Fog VV002 48 48     100% 45   30.09 29.99      
Notice The following observation data may not be complete
Jun 08 17:42   1.25 Fog/Mist OVC002          %              
Jun 08 11:52   1.75 Light Rain and Fog/Mist SCT006 BKN010 OVC021 43 42     97%     30.12 30.02 0    
Notice The following observation data may not be complete
Jun 08 11:20   2 Rain and Fog/Mist FEW005 SCT012 OVC021          %         0    
Jun 07 23:52 SE 7 10 Clear CLR 51 39     63%       29.83      
Jun 07 22:52 SE 7 10 Clear CLR 51 40     65%     30.05 29.85      
Jun 07 20:52 S 8 10 Clear CLR 57 38     49%     30.04 29.82      
Jun 05 21:52 Calm 10 Clear CLR 59 32     36%       29.87